Terug naar catalogus

STARLINK-32618

ActiefCommunicatieVLEO
NORAD 62045·PAYLOAD·🇺🇸 United States

Gelanceerd Nov 21, 2024 vanaf Cape Canaveral Space Force Station

Loading…

Volgende Passages (komende 24 uur)

TLE

VersSource: CelesTrak SupGP

Epoch: Sep 14, 2026, 21:19 UTC

1 62045C 24216P   26257.88868056  .00020529  00000+0  74382-3 0  2574
2 62045  42.9997 267.9699 0001497 267.2181 300.6212 15.27557144    11

Volg STARLINK-32618 in realtime met AllMySat

Download on the App Store